Location: Cosy Dell
(34.2789°N, 117.4537°W)
Time: 12:19:59
(UTC+00:00)

Cosmos 2237 Rocket - Pass Details

Date: 14 July 2020
Orbit: 834 x 850 km, 71.0° (Epoch: 09 August)

Event Time Altitude Azimuth Distance (km) Brightness Sun altitude
Rises 04:37:23 0° 206° (SSW) 3,393 5.2 -16.9°
Reaches altitude 10° 04:39:50 10° 208° (SSW) 2,463 4.5 -17.3°
Maximum altitude 04:45:28 69° 292° (WNW) 905 2.5 -18.1°
Drops below altitude 10° 04:51:09 10° 16° (NNE) 2,481 5.0 -19.0°
Sets 04:53:38 0° 19° (NNE) 3,419 5.7 -19.3°
